Benson, MN

9:23 AM CDT on September 29, 2016 (GMT -0500)
Benson Municipal

Weather History for KBBB - June, 2013

Change the Weather History Date:

Sunday, June 9, 2013

  Actual Average Record
Temperature  
Mean Temperature 60 °F -  
Max Temperature 62 °F 77 °F 98 °F (1973)
Min Temperature 57 °F 54 °F 39 °F (1989)
Degree Days  
Heating Degree Days 6    
Growing Degree Days 10 (Base 50)    
Moisture  
Dew Point 56 °F    
Average Humidity 92    
Maximum Humidity 100    
Minimum Humidity 68    
Precipitation  
Precipitation 0.00 in - - ()
Sea Level Pressure  
Sea Level Pressure 29.79 in    
Wind  
Wind Speed 8 mph (ESE)    
Max Wind Speed 13 mph    
Max Gust Speed 21 mph    
Visibility 6 miles    
Events Rain    
Averages and records for this station are not official NWS values.
T = Trace of Precipitation, MM = Missing Value Source: NWS Daily Summary

Daily Weather History Graph

Daily Weather History Graph

Search for Another Location

Airport or City:

Trip Planner

Search our weather history database for the weather conditions in past years. The results will help you decide how hot, cold, wet, or windy it might be!

Date:

Astronomy

Jun. 09, 2013 Rise Set
Actual Time 5:34 AM CDT 9:09 PM CDT
Civil Twilight 4:57 AM CDT 9:46 PM CDT
Nautical Twilight 4:07 AM CDT 10:36 PM CDT
Astronomical Twilight 3:02 AM CDT 11:42 PM CDT
Moon 6:35 AM CDT (6/9) 9:53 PM CDT (6/9)
Length of Visible Light 16h 49m
Length of Day
15h 34m
New Moon, 1% of the Moon is Illuminated
Jun 9
New Moon
Jun 16
First Quarter
Jun 23
Full
Jun 29
Last Quarter
Jul 8
New

Hourly Weather History & Observations

Time (CDT) Temp. Dew Point Humidity Pressure Visibility Wind Dir Wind Speed Gust Speed Precip Events Conditions
12:13 AM 62.6 °F 51.8 °F 68% 29.85 in 10.0 mi SE 9.2 mph - N/A   Overcast
12:33 AM 62.6 °F 53.6 °F 72% 29.84 in 10.0 mi SE 8.1 mph - N/A   Overcast
12:52 AM 60.8 °F 53.6 °F 77% 29.84 in 10.0 mi SSE 11.5 mph 16.1 mph N/A   Drizzle
1:13 AM 59.0 °F 55.4 °F 88% 29.84 in 10.0 mi SE 10.4 mph 16.1 mph N/A Rain Light Rain
1:33 AM 57.2 °F 55.4 °F 94% 29.83 in 7.0 mi SE 10.4 mph - N/A Rain Light Rain
1:52 AM 57.2 °F 55.4 °F 94% 29.83 in 7.0 mi SE 10.4 mph - N/A Rain Light Rain
2:13 AM 57.2 °F 55.4 °F 94% 29.82 in 7.0 mi SE 9.2 mph - N/A Rain Light Rain
2:33 AM 57.2 °F 55.4 °F 94% 29.82 in 5.0 mi SE 9.2 mph - N/A Rain Light Rain
2:52 AM 57.2 °F 55.4 °F 94% 29.81 in 7.0 mi ESE 10.4 mph - N/A Rain Rain
3:13 AM 57.2 °F 55.4 °F 94% 29.80 in 7.0 mi ESE 9.2 mph 16.1 mph N/A Rain Light Rain
3:33 AM 57.2 °F 55.4 °F 94% 29.79 in 7.0 mi ESE 10.4 mph 16.1 mph N/A Rain Light Rain
3:52 AM 57.2 °F 55.4 °F 94% 29.78 in 7.0 mi ESE 9.2 mph 17.3 mph N/A Rain Light Rain
4:13 AM 57.2 °F 55.4 °F 94% 29.78 in 7.0 mi ESE 10.4 mph 18.4 mph N/A Rain Light Rain
4:33 AM 57.2 °F 55.4 °F 94% 29.77 in 7.0 mi ESE 11.5 mph 19.6 mph N/A Rain Light Rain
4:52 AM 57.2 °F 55.4 °F 94% 29.77 in 7.0 mi ESE 9.2 mph 18.4 mph N/A Rain Light Rain
5:13 AM 57.2 °F 55.4 °F 94% 29.76 in 7.0 mi ESE 10.4 mph 20.7 mph N/A Rain Light Rain
5:33 AM 57.2 °F 55.4 °F 94% 29.75 in 7.0 mi ESE 10.4 mph 18.4 mph N/A Rain Light Rain
5:52 AM 57.2 °F 55.4 °F 94% 29.75 in 7.0 mi ESE 12.7 mph 18.4 mph N/A Rain Light Rain
6:13 AM 57.2 °F 55.4 °F 94% 29.75 in 5.0 mi ESE 12.7 mph 19.6 mph N/A Rain Rain
6:33 AM 57.2 °F 55.4 °F 94% 29.75 in 5.0 mi ESE 12.7 mph - N/A Rain Rain
6:52 AM 57.2 °F 55.4 °F 94% 29.75 in 5.0 mi ESE 10.4 mph 17.3 mph N/A Rain Rain
7:13 AM 57.2 °F 55.4 °F 94% 29.75 in 3.0 mi ESE 10.4 mph 17.3 mph N/A Rain Rain
7:32 AM 57.2 °F 55.4 °F 94% 29.75 in 3.0 mi ESE 10.4 mph 16.1 mph N/A Rain Light Rain
7:53 AM 57.2 °F 55.4 °F 94% 29.75 in 3.0 mi ESE 10.4 mph 16.1 mph N/A Rain Rain
8:12 AM 57.2 °F 55.4 °F 94% 29.75 in 2.5 mi ESE 10.4 mph 16.1 mph N/A Rain Rain
8:32 AM 57.2 °F 55.4 °F 94% 29.74 in 3.0 mi ESE 11.5 mph 17.3 mph N/A Rain Light Rain
8:53 AM 57.2 °F 55.4 °F 94% 29.74 in 3.0 mi ESE 10.4 mph 16.1 mph N/A Rain Light Rain
9:12 AM 57.2 °F 55.4 °F 94% 29.74 in 3.0 mi ESE 12.7 mph 18.4 mph N/A Rain Light Rain
9:32 AM 57.2 °F 55.4 °F 94% 29.75 in 5.0 mi ESE 11.5 mph 16.1 mph N/A   Light Drizzle
9:53 AM 57.2 °F 55.4 °F 94% 29.74 in 7.0 mi ESE 10.4 mph 17.3 mph N/A   Light Drizzle
10:12 AM 57.2 °F 55.4 °F 94% 29.75 in 7.0 mi SE 11.5 mph 18.4 mph N/A   Overcast
10:33 AM 57.2 °F 55.4 °F 94% 29.75 in 7.0 mi ESE 9.2 mph - N/A   Overcast
10:52 AM 57.2 °F 55.4 °F 94% 29.76 in 5.0 mi SE 9.2 mph - N/A   Overcast
11:12 AM 57.2 °F 55.4 °F 94% 29.76 in 1.8 mi ESE 6.9 mph - N/A Rain Light Rain
11:33 AM 57.2 °F 55.4 °F 94% 29.77 in 2.0 mi ESE 9.2 mph - N/A Rain Rain
11:52 AM 57.2 °F 55.4 °F 94% 29.77 in 1.2 mi East 9.2 mph - N/A Rain Rain
12:12 PM 57.2 °F 57.2 °F 100% 29.77 in 1.8 mi East 6.9 mph - N/A Rain Heavy Rain
12:33 PM 57.2 °F 55.4 °F 94% 29.77 in 2.5 mi ESE 8.1 mph - N/A   Drizzle
12:53 PM 57.2 °F 55.4 °F 94% 29.78 in 3.0 mi East 6.9 mph - N/A Rain Light Rain
1:13 PM 57.2 °F 57.2 °F 100% 29.78 in 2.5 mi East 9.2 mph - N/A Rain Light Rain
1:33 PM 57.2 °F 57.2 °F 100% 29.78 in 3.0 mi East 6.9 mph - N/A   Drizzle
1:52 PM 57.2 °F 57.2 °F 100% 29.78 in 3.0 mi East 6.9 mph - N/A Rain Light Rain
2:13 PM 59.0 °F 57.2 °F 94% 29.78 in 4.0 mi East 5.8 mph - N/A Rain Light Rain
2:33 PM 60.8 °F 57.2 °F 88% 29.78 in 5.0 mi East 5.8 mph - N/A   Light Drizzle
2:52 PM 60.8 °F 57.2 °F 88% 29.78 in 4.0 mi East 5.8 mph - N/A   Overcast
3:13 PM 60.8 °F 57.2 °F 88% 29.78 in 7.0 mi ESE 4.6 mph - N/A   Overcast
3:33 PM 60.8 °F 57.2 °F 88% 29.78 in 7.0 mi ESE 4.6 mph - N/A   Overcast
3:52 PM 60.8 °F 57.2 °F 88% 29.78 in 10.0 mi ESE 6.9 mph - N/A   Overcast
4:13 PM 60.8 °F 57.2 °F 88% 29.79 in 7.0 mi East 5.8 mph - N/A   Overcast
4:33 PM 60.8 °F 57.2 °F 88% 29.79 in 7.0 mi East 8.1 mph - N/A   Overcast
4:52 PM 60.8 °F 57.2 °F 88% 29.79 in 10.0 mi East 6.9 mph - N/A   Overcast
5:13 PM 60.8 °F 57.2 °F 88% 29.80 in 10.0 mi ESE 5.8 mph - N/A   Overcast
5:33 PM 60.8 °F 57.2 °F 88% 29.81 in 10.0 mi East 5.8 mph - N/A   Overcast
5:52 PM 60.8 °F 57.2 °F 88% 29.81 in 10.0 mi East 4.6 mph - N/A   Overcast
6:13 PM 60.8 °F 57.2 °F 88% 29.82 in 10.0 mi East 4.6 mph - N/A   Overcast
6:33 PM 60.8 °F 57.2 °F 88% 29.81 in 10.0 mi East 3.5 mph - N/A   Overcast
6:52 PM 60.8 °F 57.2 °F 88% 29.81 in 10.0 mi ENE 3.5 mph - N/A   Overcast
7:13 PM 60.8 °F 57.2 °F 88% 29.82 in 10.0 mi NE 5.8 mph - N/A   Overcast
7:32 PM 60.8 °F 57.2 °F 88% 29.83 in 10.0 mi NE 4.6 mph - N/A   Overcast
7:53 PM 60.8 °F 57.2 °F 88% 29.83 in 7.0 mi NE 3.5 mph - N/A   Overcast
8:13 PM 60.8 °F 57.2 °F 88% 29.83 in 7.0 mi ENE 3.5 mph - N/A   Overcast
8:32 PM 60.8 °F 57.2 °F 88% 29.83 in 7.0 mi NE 3.5 mph - N/A   Overcast
8:53 PM 60.8 °F 57.2 °F 88% 29.84 in 7.0 mi NE 3.5 mph - N/A   Overcast
9:12 PM 60.8 °F 57.2 °F 88% 29.84 in 7.0 mi Calm Calm - N/A   Overcast
9:32 PM 59.0 °F 57.2 °F 94% 29.84 in 7.0 mi ENE 3.5 mph - N/A   Overcast
9:53 PM 59.0 °F 57.2 °F 94% 29.84 in 7.0 mi NE 3.5 mph - N/A   Overcast
10:12 PM 59.0 °F 57.2 °F 94% 29.85 in 7.0 mi NNE 3.5 mph - N/A   Overcast
10:32 PM 59.0 °F 57.2 °F 94% 29.86 in 7.0 mi Calm Calm - N/A   Overcast
10:53 PM 59.0 °F 57.2 °F 94% 29.86 in 7.0 mi Calm Calm - N/A   Overcast
11:12 PM 57.2 °F 57.2 °F 100% 29.86 in 7.0 mi Calm Calm - N/A   Overcast
11:33 PM 57.2 °F 57.2 °F 100% 29.85 in 5.0 mi Calm Calm - N/A   Overcast
11:53 PM 57.2 °F 57.2 °F 100% 29.85 in 5.0 mi Calm Calm - N/A   Overcast